Tracking 35055 objects as of 18-Aug-2026
HD Live streaming from Space Station
objects crossing your sky now

STARLINK-38151


10-day predictions
STARLINK-38151 is classified as:


NORAD ID: 100168
Int'l Code: 2026-171W
Launch date: July 25, 2026
Source: United States (US)
Launch site: AIR FORCE WESTERN TEST RANGE (AFWTR)
Your satellite tracking list
Your tracking list is empty




NASA's NSSDC Master Catalog

Two Line Element Set (TLE):
1 A0168U 26171W   26229.84516670 -.00811824  00000-0 -50942-2 0  9998
2 A0168  97.2844 261.9370 0001875   2.9822 357.1456 15.78795766  3682
Source of the keplerian elements: AFSPC